Weather in Springfield

United States     37°11′22″N   93°16′41″W
temp.,
°C
wind,
m/s
gust,
m/s
humid.,
%
clouds,
%
prec.,
mm/h
press.,
hPa
HPBL,
m
26 may, thu
thu2601:00+11s389819 0.1 1006281
04:00+11s4890100 0.0 1006553
07:00+11s4996100 0.4 1005634
10:00+11sse4898100 4.3 1006611
13:00+12ssw2398100 7.0 1005330
16:00+11wnw5897100 1.2 1007554
19:00+11w41099100 2.6 1008555
22:00+12wnw81698100 4.2 1009805
27 may, fri
fri2701:00+12wnw7149796 4.5 1010575
04:00+11wnw5119854 0.0 1011352
07:00+10wnw4109961 0.0 1013302
10:00+15nw698215 0.0 1014607
13:00+19nw68660 0.0 1014993
16:00+20nw57650 0.0 10141016
19:00+19wnw35790 0.0 1013293
22:00+14w11870 0.0 101411
28 may, sat
sat2801:00+13sse11880 0.0 101411
04:00+13se34880 0.0 101356
07:00+13sse49903 0.0 1013171
10:00+20s6107588 0.1 1012380
13:00+24sse61167100 0.4 1010701
16:00+27s7116477 0.0 10061018
19:00+25s6127210 0.0 1006510
22:00+23sse7166823 0.0 1006600
29 may, sun
sun2901:00+21sse81976100 0.0 1005640
04:00+20sse81879100 0.0 1004494
07:00+20s8188241 0.0 1006495
10:00+25s9196677 0.0 1005819
13:00+30s9165520 0.0 10051079
16:00+30s814525 0.0 10051024
19:00+27s816585 0.0 1006609
22:00+25s817523 0.0 1009681
30 may, mon
mon3001:00+22s717615 0.0 1010494
04:00+21s6177472 0.0 1010431
07:00+20s615814 0.0 1012350
10:00+25ssw614712 0.0 1013800
13:00+29ssw69565 0.0 10131639
16:00+29s69560 0.0 10121654
19:00+26sse511650 0.0 1013539
22:00+23sse614630 0.0 1015584